EN

Hourly Weather Tocancipa

Today, 21 April, Wednesday

Time Temperature Precipitation Wind Pressure Humidity
00:00 +11°C° 0 mm 1 mps 559 mmHg 94%
01:00 +11°C° 0 mm 1 mps 559 mmHg 94%
02:00 +10°C° 0 mm 1 mps 559 mmHg 93%
03:00 +10°C° 0 mm 1 mps 558 mmHg 93%
04:00 +10°C° 0 mm 1 mps 558 mmHg 92%
05:00 +11°C° 0 mm 1 mps 559 mmHg 89%
06:00 +11°C° 0 mm 1 mps 559 mmHg 87%
07:00 +12°C° 0 mm 1 mps 560 mmHg 85%
08:00 +14°C° 0 mm 1 mps 561 mmHg 74%
09:00 +16°C° 0 mm 1 mps 562 mmHg 64%
10:00 +20°C° 0 mm 1 mps 563 mmHg 54%
11:00 +19°C° 0.1 mm 2 mps 562 mmHg 52%
12:00 +20°C° 0.1 mm 2 mps 562 mmHg 51%
13:00 +21°C° 0.1 mm 2 mps 562 mmHg 49%
14:00 +19°C° 0.3 mm 2 mps 561 mmHg 58%
15:00 +19°C° 0.3 mm 1 mps 560 mmHg 68%
16:00 +18°C° 0.3 mm 1 mps 559 mmHg 77%
17:00 +16°C° 0.4 mm 1 mps 559 mmHg 82%
18:00 +15°C° 0.4 mm 1 mps 560 mmHg 88%
19:00 +14°C° 0.4 mm 1 mps 560 mmHg 93%
20:00 +13°C° 0.3 mm 1 mps 560 mmHg 94%
21:00 +13°C° 0.3 mm 1 mps 560 mmHg 95%
22:00 +13°C° 0.3 mm 1 mps 560 mmHg 95%
23:00 +12°C° 0.1 mm 0 mps 560 mmHg 95%

Tomorrow, 22 April, Thursday

Time Temperature Precipitation Wind Pressure Humidity
00:00 +12°C° 0.1 mm 0 mps 560 mmHg 95%
01:00 +12°C° 0.1 mm 0 mps 559 mmHg 95%
02:00 +11°C° 0.1 mm 0 mps 559 mmHg 95%
03:00 +11°C° 0.1 mm 0 mps 559 mmHg 95%
04:00 +11°C° 0.1 mm 0 mps 559 mmHg 95%
05:00 +11°C° 0.1 mm 0 mps 559 mmHg 94%
06:00 +12°C° 0.1 mm 0 mps 560 mmHg 92%
07:00 +12°C° 0.1 mm 0 mps 560 mmHg 91%
08:00 +14°C° 0.3 mm 1 mps 561 mmHg 84%
09:00 +16°C° 0.3 mm 1 mps 562 mmHg 77%
10:00 +19°C° 0.3 mm 1 mps 562 mmHg 70%
11:00 +19°C° 0.6 mm 1 mps 562 mmHg 71%
12:00 +17°C° 0.6 mm 2 mps 561 mmHg 73%
13:00 +17°C° 0.6 mm 2 mps 560 mmHg 75%
14:00 +17°C° 0.8 mm 2 mps 560 mmHg 76%
15:00 +18°C° 0.8 mm 1 mps 559 mmHg 78%
16:00 +16°C° 0.8 mm 1 mps 559 mmHg 79%
17:00 +15°C° 0.4 mm 1 mps 559 mmHg 84%
18:00 +14°C° 0.4 mm 1 mps 559 mmHg 88%
19:00 +13°C° 0.4 mm 1 mps 559 mmHg 92%
20:00 +13°C° 0.1 mm 1 mps 560 mmHg 93%
21:00 +13°C° 0.1 mm 1 mps 560 mmHg 94%
22:00 +13°C° 0.1 mm 1 mps 560 mmHg 95%
23:00 +13°C° 0.2 mm 1 mps 560 mmHg 95%

Day after tomorrow, 23 April, Friday

Time Temperature Precipitation Wind Pressure Humidity
00:00 +13°C° 0.2 mm 1 mps 560 mmHg 95%
01:00 +12°C° 0.2 mm 1 mps 559 mmHg 95%
02:00 +12°C° 0.1 mm 1 mps 559 mmHg 95%
03:00 +12°C° 0.1 mm 1 mps 559 mmHg 95%
04:00 +12°C° 0.1 mm 1 mps 559 mmHg 95%
05:00 +12°C° 0 mm 1 mps 559 mmHg 93%
06:00 +13°C° 0 mm 1 mps 560 mmHg 92%
07:00 +13°C° 0 mm 1 mps 560 mmHg 90%
08:00 +14°C° 0.1 mm 1 mps 561 mmHg 84%
09:00 +16°C° 0.1 mm 1 mps 561 mmHg 79%
10:00 +18°C° 0.1 mm 1 mps 562 mmHg 73%
11:00 +18°C° 0.8 mm 1 mps 561 mmHg 74%
12:00 +18°C° 0.8 mm 1 mps 561 mmHg 75%
13:00 +18°C° 0.8 mm 1 mps 560 mmHg 76%
14:00 +18°C° 0.8 mm 1 mps 560 mmHg 78%
15:00 +18°C° 0.8 mm 1 mps 560 mmHg 80%
16:00 +16°C° 0.8 mm 1 mps 559 mmHg 82%
17:00 +15°C° 0.5 mm 1 mps 559 mmHg 85%
18:00 +13°C° 0.5 mm 0 mps 559 mmHg 89%
19:00 +12°C° 0.5 mm 0 mps 559 mmHg 92%
20:00 +12°C° 0.1 mm 0 mps 559 mmHg 93%
21:00 +13°C° 0.1 mm 1 mps 560 mmHg 93%
22:00 +13°C° 0.1 mm 1 mps 560 mmHg 93%
23:00 +13°C° 0.2 mm 1 mps 560 mmHg 94%

24 April, Saturday

Time Temperature Precipitation Wind Pressure Humidity
00:00 +13°C° 0.2 mm 1 mps 560 mmHg 95%
01:00 +13°C° 0.2 mm 1 mps 559 mmHg 95%
02:00 +13°C° 0.1 mm 1 mps 559 mmHg 95%
03:00 +12°C° 0.1 mm 0 mps 559 mmHg 95%
04:00 +11°C° 0.1 mm 0 mps 559 mmHg 95%
05:00 +12°C° 0 mm 0 mps 559 mmHg 94%
06:00 +12°C° 0 mm 0 mps 560 mmHg 93%
07:00 +12°C° 0 mm 0 mps 560 mmHg 92%
08:00 +15°C° 0.2 mm 1 mps 561 mmHg 85%
09:00 +16°C° 0.2 mm 1 mps 562 mmHg 79%
10:00 +18°C° 0.2 mm 1 mps 562 mmHg 72%
11:00 +19°C° 0.3 mm 1 mps 562 mmHg 70%
12:00 +19°C° 0.3 mm 1 mps 561 mmHg 68%
13:00 +20°C° 0.3 mm 1 mps 561 mmHg 66%
14:00 +19°C° 0.4 mm 1 mps 560 mmHg 70%
15:00 +19°C° 0.4 mm 1 mps 560 mmHg 74%
16:00 +18°C° 0.4 mm 1 mps 559 mmHg 78%
17:00 +16°C° 0.4 mm 1 mps 559 mmHg 82%
18:00 +15°C° 0.4 mm 1 mps 559 mmHg 87%
19:00 +14°C° 0.4 mm 1 mps 559 mmHg 92%
20:00 +14°C° 0.1 mm 1 mps 559 mmHg 92%
21:00 +12°C° 0.1 mm 0 mps 560 mmHg 92%
22:00 +12°C° 0.1 mm 0 mps 560 mmHg 92%
23:00 +12°C° 0 mm 0 mps 560 mmHg 92%

25 April, Sunday

Time Temperature Precipitation Wind Pressure Humidity
00:00 +12°C° 0 mm 0 mps 559 mmHg 92%
01:00 +12°C° 0 mm 0 mps 559 mmHg 92%
02:00 +11°C° 0 mm 0 mps 559 mmHg 91%
03:00 +11°C° 0 mm 0 mps 559 mmHg 91%
04:00 +12°C° 0 mm 1 mps 559 mmHg 91%
05:00 +12°C° 0 mm 1 mps 559 mmHg 90%
06:00 +13°C° 0 mm 1 mps 560 mmHg 89%
07:00 +13°C° 0 mm 1 mps 560 mmHg 88%
08:00 +15°C° 0.1 mm 1 mps 561 mmHg 80%
09:00 +18°C° 0.1 mm 1 mps 562 mmHg 73%
10:00 +19°C° 0.1 mm 1 mps 562 mmHg 66%
11:00 +20°C° 0.2 mm 1 mps 562 mmHg 64%
12:00 +20°C° 0.2 mm 1 mps 561 mmHg 62%
13:00 +21°C° 0.2 mm 1 mps 561 mmHg 60%
14:00 +20°C° 0.4 mm 1 mps 560 mmHg 66%
15:00 +19°C° 0.4 mm 1 mps 560 mmHg 71%
16:00 +19°C° 0.4 mm 1 mps 559 mmHg 77%
17:00 +16°C° 0.4 mm 1 mps 559 mmHg 82%
18:00 +15°C° 0.4 mm 1 mps 559 mmHg 88%
19:00 +14°C° 0.4 mm 1 mps 559 mmHg 93%
20:00 +14°C° 0.2 mm 1 mps 560 mmHg 93%
21:00 +13°C° 0.2 mm 1 mps 560 mmHg 93%
22:00 +12°C° 0.2 mm 0 mps 560 mmHg 94%
23:00 +12°C° 0 mm 0 mps 560 mmHg 94%

26 April, Monday

Time Temperature Precipitation Wind Pressure Humidity
00:00 +13°C° 0 mm 1 mps 559 mmHg 93%
01:00 +12°C° 0 mm 1 mps 559 mmHg 93%
02:00 +12°C° 0 mm 1 mps 559 mmHg 93%
03:00 +12°C° 0 mm 1 mps 559 mmHg 93%
04:00 +12°C° 0 mm 1 mps 558 mmHg 93%
05:00 +12°C° 0 mm 1 mps 559 mmHg 92%
06:00 +13°C° 0 mm 1 mps 559 mmHg 91%
07:00 +12°C° 0 mm 0 mps 560 mmHg 90%
08:00 +15°C° 0.1 mm 1 mps 561 mmHg 84%
09:00 +16°C° 0.1 mm 1 mps 561 mmHg 78%
10:00 +19°C° 0.1 mm 1 mps 562 mmHg 72%
11:00 +19°C° 0.2 mm 1 mps 561 mmHg 69%
12:00 +20°C° 0.2 mm 1 mps 561 mmHg 66%
13:00 +21°C° 0.2 mm 1 mps 561 mmHg 63%
14:00 +20°C° 0.4 mm 1 mps 560 mmHg 68%
15:00 +19°C° 0.4 mm 1 mps 560 mmHg 72%
16:00 +19°C° 0.4 mm 1 mps 559 mmHg 77%
17:00 +16°C° 0.6 mm 1 mps 559 mmHg 82%
18:00 +15°C° 0.6 mm 1 mps 559 mmHg 88%
19:00 +14°C° 0.6 mm 1 mps 559 mmHg 93%
20:00 +13°C° 0.5 mm 0 mps 559 mmHg 94%
21:00 +13°C° 0.5 mm 0 mps 560 mmHg 94%
22:00 +13°C° 0.5 mm 0 mps 560 mmHg 95%
23:00 +13°C° 0.3 mm 0 mps 560 mmHg 95%
Show more

We Need Your Consent

Meteoprog and our Service Providers may store and access personal data such as cookies, device identifiers or other similar technologies on your device and process such data to personalise content and ads, as well as provide social media features and to analyse the traffic.

  • Store and/or access information on your device

    Cookies, device identifiers or other information can be stored or accessed on your device for the purposes indicated above.

  • Personalised ads and content, ad and content measurement, audience insights, and products development

    Ads and content can be personalised based on a profile. More data can be added to better personalise ads and content. Ad and content performance can be measured. Insights about the audience who saw the ads and content can be derived. Such data can be used to develop or improve user’s experience, systems and software.

By clicking ‘I Agree’ you will allow the use of indicated cookies, device identifiers, web beacons or other similar technologies. Your settings can be changed in the browser on your device.

For certain purposes, legitimate interests may be relied on, rather than consent. You can read more about this in our Privacy and Cookie Policy.